Time,TemperatureF,DewpointF,PressureIn,WindDirection,WindDirectionDegrees,WindSpeedMPH,WindSpeedGustMPH,Humidity,HourlyPrecipIn,Conditions,Clouds,dailyrainin,SoftwareType,DateUTC
2013-05-09 00:01:00,53.9,51.3,29.94,East,101,0.0,0.0,91,0.00,CLR,CLR,0.00,WeatherDisplay:10.36,2013-05-09 04:01:00,
2013-05-09 00:02:00,53.9,51.3,29.94,East,101,0.0,0.0,91,0.00,CLR,CLR,0.00,WeatherDisplay:10.36,2013-05-09 04:02:00,
2013-05-09 00:03:00,53.9,51.3,29.94,East,101,0.0,0.0,91,0.00,CLR,CLR,0.00,WeatherDisplay:10.36,2013-05-09 04:03:00,
2013-05-09 00:08:00,53.8,51.2,29.94,East,101,0.0,0.0,91,0.00,CLR,CLR,0.00,WeatherDisplay:10.36,2013-05-09 04:08:00,
2013-05-09 00:13:00,53.6,51.0,29.93,East,101,0.0,0.0,91,0.00,CLR,CLR,0.00,WeatherDisplay:10.36,2013-05-09 04:13:00,
2013-05-09 00:18:00,53.5,50.9,29.93,East,101,0.0,0.0,91,0.00,CLR,CLR,0.00,WeatherDisplay:10.36,2013-05-09 04:18:00,
2013-05-09 00:23:00,53.5,50.9,29.93,East,101,0.0,0.0,91,0.00,CLR,CLR,0.00,WeatherDisplay:10.36,2013-05-09 04:23:00,
2013-05-09 00:28:00,53.3,51.0,29.93,East,101,0.0,0.0,92,0.00,CLR,CLR,0.00,WeatherDisplay:10.36,2013-05-09 04:28:00,
2013-05-09 00:33:00,53.2,50.9,29.93,East,101,0.0,0.0,92,0.00,CLR,CLR,0.00,WeatherDisplay:10.36,2013-05-09 04:33:00,
2013-05-09 00:38:00,53.1,50.8,29.93,East,101,0.0,0.0,92,0.00,CLR,CLR,0.00,WeatherDisplay:10.36,2013-05-09 04:38:00,
2013-05-09 00:44:00,52.9,50.6,29.92,East,101,0.0,0.0,92,0.00,CLR,CLR,0.00,WeatherDisplay:10.36,2013-05-09 04:44:00,
2013-05-09 00:49:00,52.8,50.5,29.92,East,101,0.0,0.0,92,0.00,CLR,CLR,0.00,WeatherDisplay:10.36,2013-05-09 04:49:00,
2013-05-09 00:54:00,52.5,50.2,29.92,East,101,0.0,0.0,92,0.00,CLR,CLR,0.00,WeatherDisplay:10.36,2013-05-09 04:54:00,
2013-05-09 00:59:00,52.3,50.0,29.92,East,101,0.0,0.0,92,0.00,CLR,CLR,0.00,WeatherDisplay:10.36,2013-05-09 04:59:00,
2013-05-09 01:04:00,52.2,49.9,29.92,East,101,0.0,0.0,92,0.00,CLR,CLR,0.00,WeatherDisplay:10.36,2013-05-09 05:04:00,
2013-05-09 01:09:00,52.2,50.2,29.92,East,101,0.0,0.0,93,0.00,CLR,CLR,0.00,WeatherDisplay:10.36,2013-05-09 05:09:00,
2013-05-09 01:15:00,52.2,50.2,29.92,East,101,0.0,0.0,93,0.00,CLR,CLR,0.00,WeatherDisplay:10.36,2013-05-09 05:15:00,
2013-05-09 01:20:00,52.0,50.0,29.92,East,101,0.0,0.0,93,0.00,CLR,CLR,0.00,WeatherDisplay:10.36,2013-05-09 05:20:00,
2013-05-09 01:25:00,52.0,50.0,29.92,East,101,0.0,0.0,93,0.00,CLR,CLR,0.00,WeatherDisplay:10.36,2013-05-09 05:25:00,
2013-05-09 01:30:00,52.2,50.2,29.92,East,101,0.0,0.0,93,0.00,CLR,CLR,0.00,WeatherDisplay:10.36,2013-05-09 05:30:00,
2013-05-09 01:35:00,52.2,50.2,29.92,East,101,0.0,0.0,93,0.00,CLR,CLR,0.00,WeatherDisplay:10.36,2013-05-09 05:35:00,
2013-05-09 01:41:00,52.2,50.2,29.91,East,101,0.0,0.0,93,0.00,CLR,CLR,0.00,WeatherDisplay:10.36,2013-05-09 05:41:00,
2013-05-09 01:46:00,52.2,50.2,29.91,East,101,0.0,0.0,93,0.00,CLR,CLR,0.00,WeatherDisplay:10.36,2013-05-09 05:46:00,
2013-05-09 01:51:00,52.2,50.2,29.91,East,101,0.0,0.0,93,0.00,CLR,CLR,0.00,WeatherDisplay:10.36,2013-05-09 05:51:00,
2013-05-09 01:56:00,52.2,50.2,29.91,East,101,0.0,0.0,93,0.00,CLR,CLR,0.00,WeatherDisplay:10.36,2013-05-09 05:56:00,
2013-05-09 02:01:00,52.0,50.0,29.91,East,101,0.0,0.0,93,0.00,CLR,CLR,0.00,WeatherDisplay:10.36,2013-05-09 06:01:00,
2013-05-09 02:06:00,52.0,50.0,29.90,East,101,0.0,0.0,93,0.00,CLR,CLR,0.00,WeatherDisplay:10.36,2013-05-09 06:06:00,
2013-05-09 02:11:00,52.0,50.3,29.90,East,101,0.0,0.0,94,0.00,CLR,CLR,0.00,WeatherDisplay:10.36,2013-05-09 06:11:00,
2013-05-09 02:17:00,52.0,50.3,29.90,East,101,0.0,0.0,94,0.00,CLR,CLR,0.00,WeatherDisplay:10.36,2013-05-09 06:17:00,
2013-05-09 02:22:00,52.0,50.3,29.90,East,101,0.0,0.0,94,0.00,CLR,CLR,0.00,WeatherDisplay:10.36,2013-05-09 06:22:00,
2013-05-09 02:27:00,52.0,50.3,29.90,East,101,0.0,0.0,94,0.00,CLR,CLR,0.00,WeatherDisplay:10.36,2013-05-09 06:27:00,
2013-05-09 02:32:00,52.0,50.3,29.90,East,101,0.0,0.0,94,0.00,CLR,CLR,0.00,WeatherDisplay:10.36,2013-05-09 06:32:00,
2013-05-09 02:37:00,52.0,50.3,29.89,East,101,0.0,0.0,94,0.00,CLR,CLR,0.00,WeatherDisplay:10.36,2013-05-09 06:37:00,
2013-05-09 02:42:00,52.0,50.3,29.90,East,101,0.0,0.0,94,0.00,CLR,CLR,0.00,WeatherDisplay:10.36,2013-05-09 06:42:00,
2013-05-09 02:47:00,52.2,50.5,29.89,East,101,0.0,0.0,94,0.00,CLR,CLR,0.00,WeatherDisplay:10.36,2013-05-09 06:47:00,
2013-05-09 02:52:00,52.2,50.5,29.89,East,101,0.0,0.0,94,0.00,CLR,CLR,0.00,WeatherDisplay:10.36,2013-05-09 06:52:00,
2013-05-09 02:57:00,52.2,50.5,29.89,East,100,0.0,0.0,94,0.00,CLR,CLR,0.00,WeatherDisplay:10.36,2013-05-09 06:57:00,
2013-05-09 03:02:00,52.2,50.5,29.89,East,101,0.0,0.0,94,0.00,CLR,CLR,0.00,WeatherDisplay:10.36,2013-05-09 07:02:00,
2013-05-09 03:08:00,52.3,50.9,29.89,East,101,0.0,0.0,95,0.00,CLR,CLR,0.00,WeatherDisplay:10.36,2013-05-09 07:08:00,
2013-05-09 03:13:00,52.3,50.9,29.89,East,101,0.0,0.0,95,0.00,CLR,CLR,0.00,WeatherDisplay:10.36,2013-05-09 07:13:00,
2013-05-09 03:18:00,52.5,51.1,29.89,East,101,0.0,0.0,95,0.00,CLR,CLR,0.00,WeatherDisplay:10.36,2013-05-09 07:18:00,
2013-05-09 03:23:00,52.6,51.2,29.89,East,101,0.0,0.0,95,0.00,CLR,CLR,0.00,WeatherDisplay:10.36,2013-05-09 07:23:00,
2013-05-09 03:28:00,52.6,51.2,29.89,East,101,0.0,0.0,95,0.00,CLR,CLR,0.00,WeatherDisplay:10.36,2013-05-09 07:28:00,
2013-05-09 03:33:00,52.8,51.4,29.89,East,101,0.0,0.0,95,0.00,CLR,CLR,0.00,WeatherDisplay:10.36,2013-05-09 07:33:00,
2013-05-09 03:38:00,52.9,51.5,29.88,East,101,0.0,0.0,95,0.00,CLR,CLR,0.00,WeatherDisplay:10.36,2013-05-09 07:38:00,
2013-05-09 03:44:00,53.3,51.9,29.88,East,101,0.0,0.0,95,0.00,CLR,CLR,0.00,WeatherDisplay:10.36,2013-05-09 07:44:00,
2013-05-09 03:49:00,53.6,52.2,29.88,East,101,0.0,0.0,95,0.00,CLR,CLR,0.00,WeatherDisplay:10.36,2013-05-09 07:49:00,
2013-05-09 03:54:00,53.8,52.4,29.89,East,101,0.0,0.0,95,0.00,CLR,CLR,0.00,WeatherDisplay:10.36,2013-05-09 07:54:00,
2013-05-09 03:59:00,53.9,52.5,29.89,East,101,0.0,0.0,95,0.00,CLR,CLR,0.00,WeatherDisplay:10.36,2013-05-09 07:59:00,
2013-05-09 04:04:00,54.1,52.7,29.89,East,101,0.0,0.0,95,0.00,CLR,CLR,0.00,WeatherDisplay:10.36,2013-05-09 08:04:00,
2013-05-09 04:09:00,54.1,52.7,29.88,East,101,0.0,0.0,95,0.00,CLR,CLR,0.00,WeatherDisplay:10.36,2013-05-09 08:09:00,
2013-05-09 04:14:00,54.1,52.7,29.88,East,101,0.0,0.0,95,0.00,CLR,CLR,0.00,WeatherDisplay:10.36,2013-05-09 08:14:00,
2013-05-09 04:19:00,54.2,52.8,29.89,East,101,0.0,0.0,95,0.00,CLR,CLR,0.00,WeatherDisplay:10.36,2013-05-09 08:19:00,
2013-05-09 04:24:00,54.4,53.0,29.88,East,101,0.0,0.0,95,0.00,CLR,CLR,0.00,WeatherDisplay:10.36,2013-05-09 08:24:00,
2013-05-09 04:29:00,54.4,53.0,29.88,East,101,0.0,0.0,95,0.00,CLR,CLR,0.00,WeatherDisplay:10.36,2013-05-09 08:29:00,
2013-05-09 04:35:00,54.5,53.1,29.89,East,101,0.0,0.0,95,0.00,CLR,CLR,0.00,WeatherDisplay:10.36,2013-05-09 08:35:00,
2013-05-09 04:40:00,54.5,53.1,29.88,East,101,0.0,0.0,95,0.00,CLR,CLR,0.00,WeatherDisplay:10.36,2013-05-09 08:40:00,
2013-05-09 04:45:00,54.5,53.1,29.88,East,101,0.0,0.0,95,0.00,CLR,CLR,0.00,WeatherDisplay:10.36,2013-05-09 08:45:00,
2013-05-09 04:50:00,54.5,53.1,29.88,East,101,0.0,0.0,95,0.00,CLR,CLR,0.00,WeatherDisplay:10.36,2013-05-09 08:50:00,
2013-05-09 04:55:00,54.7,53.3,29.88,East,101,0.0,0.0,95,0.00,CLR,CLR,0.00,WeatherDisplay:10.36,2013-05-09 08:55:00,
2013-05-09 05:00:00,54.7,53.3,29.87,East,101,0.0,0.0,95,0.00,CLR,CLR,0.00,WeatherDisplay:10.36,2013-05-09 09:00:00,
2013-05-09 05:05:00,54.7,53.3,29.87,East,101,0.0,0.0,95,0.00,CLR,CLR,0.00,WeatherDisplay:10.36,2013-05-09 09:05:00,
2013-05-09 05:10:00,54.8,53.4,29.88,East,101,0.0,0.0,95,0.00,CLR,CLR,0.00,WeatherDisplay:10.36,2013-05-09 09:10:00,
2013-05-09 05:15:00,54.8,53.4,29.88,East,101,0.0,0.0,95,0.00,CLR,CLR,0.00,WeatherDisplay:10.36,2013-05-09 09:15:00,
2013-05-09 05:20:00,54.8,53.4,29.88,East,101,0.0,0.0,95,0.00,CLR,CLR,0.00,WeatherDisplay:10.36,2013-05-09 09:20:00,
2013-05-09 05:25:00,55.0,53.6,29.88,East,101,0.0,0.0,95,0.00,CLR,CLR,0.00,WeatherDisplay:10.36,2013-05-09 09:25:00,
2013-05-09 05:30:00,55.0,53.6,29.88,East,101,0.0,0.0,95,0.00,CLR,CLR,0.00,WeatherDisplay:10.36,2013-05-09 09:30:00,
2013-05-09 05:35:00,55.0,53.6,29.88,East,101,0.0,0.0,95,0.00,CLR,CLR,0.00,WeatherDisplay:10.36,2013-05-09 09:35:00,
2013-05-09 05:40:00,55.0,53.6,29.88,East,101,0.0,0.0,95,0.00,CLR,CLR,0.00,WeatherDisplay:10.36,2013-05-09 09:40:00,
2013-05-09 05:46:00,55.0,53.6,29.88,East,101,0.0,0.0,95,0.00,CLR,CLR,0.00,WeatherDisplay:10.36,2013-05-09 09:46:00,
2013-05-09 05:51:00,55.1,53.7,29.88,East,101,0.0,0.0,95,0.00,CLR,CLR,0.00,WeatherDisplay:10.36,2013-05-09 09:51:00,
2013-05-09 05:56:00,55.1,53.7,29.88,East,100,0.0,0.0,95,0.00,CLR,CLR,0.00,WeatherDisplay:10.36,2013-05-09 09:56:00,
2013-05-09 06:01:00,55.1,53.7,29.88,East,101,0.0,0.0,95,0.00,CLR,CLR,0.00,WeatherDisplay:10.36,2013-05-09 10:01:00,
2013-05-09 06:06:00,55.1,53.7,29.88,East,101,0.0,0.0,95,0.00,CLR,CLR,0.00,WeatherDisplay:10.36,2013-05-09 10:06:00,
2013-05-09 06:11:00,55.3,54.2,29.88,East,101,0.0,0.0,96,0.00,CLR,CLR,0.00,WeatherDisplay:10.36,2013-05-09 10:11:00,
2013-05-09 06:16:00,55.3,53.9,29.88,East,101,0.0,0.0,95,0.00,CLR,CLR,0.00,WeatherDisplay:10.36,2013-05-09 10:16:00,
2013-05-09 06:21:00,55.3,54.2,29.88,East,101,0.0,0.0,96,0.00,CLR,CLR,0.00,WeatherDisplay:10.36,2013-05-09 10:21:00,
2013-05-09 06:26:00,55.3,54.2,29.88,East,101,0.0,0.0,96,0.00,CLR,CLR,0.00,WeatherDisplay:10.36,2013-05-09 10:26:00,
2013-05-09 06:32:00,55.4,54.3,29.88,East,101,0.0,0.0,96,0.00,CLR,CLR,0.00,WeatherDisplay:10.36,2013-05-09 10:32:00,
2013-05-09 06:37:00,55.4,54.3,29.89,East,101,0.0,0.0,96,0.00,CLR,CLR,0.00,WeatherDisplay:10.36,2013-05-09 10:37:00,
2013-05-09 06:42:00,55.4,54.3,29.89,East,101,0.0,0.0,96,0.00,CLR,CLR,0.00,WeatherDisplay:10.36,2013-05-09 10:42:00,
2013-05-09 06:47:00,55.6,54.5,29.89,East,101,0.0,0.0,96,0.00,CLR,CLR,0.00,WeatherDisplay:10.36,2013-05-09 10:47:00,
2013-05-09 06:52:00,55.6,54.5,29.88,East,101,0.0,0.0,96,0.00,CLR,CLR,0.00,WeatherDisplay:10.36,2013-05-09 10:52:00,
2013-05-09 06:57:00,55.6,54.5,29.88,East,101,0.0,0.0,96,0.00,CLR,CLR,0.00,WeatherDisplay:10.36,2013-05-09 10:57:00,
2013-05-09 07:02:00,55.6,54.5,29.88,East,101,0.0,0.0,96,0.00,CLR,CLR,0.00,WeatherDisplay:10.36,2013-05-09 11:02:00,
2013-05-09 07:07:00,55.6,54.5,29.88,East,101,0.0,0.0,96,0.00,CLR,CLR,0.00,WeatherDisplay:10.36,2013-05-09 11:07:00,
2013-05-09 07:12:00,55.6,54.5,29.88,East,101,0.0,0.0,96,0.00,CLR,CLR,0.00,WeatherDisplay:10.36,2013-05-09 11:12:00,
2013-05-09 07:18:00,55.6,54.5,29.88,East,101,0.0,0.0,96,0.00,CLR,CLR,0.00,WeatherDisplay:10.36,2013-05-09 11:18:00,
2013-05-09 07:23:00,55.6,54.2,29.88,East,101,0.0,0.0,95,0.00,CLR,CLR,0.00,WeatherDisplay:10.36,2013-05-09 11:23:00,
2013-05-09 07:28:00,55.6,54.5,29.88,East,101,0.0,0.0,96,0.00,CLR,CLR,0.00,WeatherDisplay:10.36,2013-05-09 11:28:00,
2013-05-09 07:33:00,55.6,54.2,29.88,East,101,0.0,0.0,95,0.00,CLR,CLR,0.00,WeatherDisplay:10.36,2013-05-09 11:33:00,
2013-05-09 07:38:00,55.6,54.5,29.89,East,101,0.0,0.0,96,0.00,CLR,CLR,0.00,WeatherDisplay:10.36,2013-05-09 11:38:00,
2013-05-09 07:43:00,55.7,54.6,29.89,East,101,0.0,0.0,96,0.00,CLR,CLR,0.00,WeatherDisplay:10.36,2013-05-09 11:43:00,
2013-05-09 07:49:00,55.9,54.8,29.89,East,101,1.2,0.0,96,0.00,CLR,CLR,0.00,WeatherDisplay:10.36,2013-05-09 11:49:00,
2013-05-09 07:54:00,55.7,54.3,29.89,East,101,0.0,0.0,95,0.00,CLR,CLR,0.00,WeatherDisplay:10.36,2013-05-09 11:54:00,
2013-05-09 07:59:00,55.7,54.6,29.89,East,101,0.0,0.0,96,0.00,CLR,CLR,0.00,WeatherDisplay:10.36,2013-05-09 11:59:00,
2013-05-09 08:04:00,55.9,54.5,29.89,East,101,0.0,0.0,95,0.00,CLR,CLR,0.00,WeatherDisplay:10.36,2013-05-09 12:04:00,
2013-05-09 08:09:00,55.9,54.8,29.89,East,101,0.0,0.0,96,0.00,CLR,CLR,0.00,WeatherDisplay:10.36,2013-05-09 12:09:00,
2013-05-09 08:14:00,56.0,54.9,29.88,East,101,0.0,0.0,96,0.00,CLR,CLR,0.00,WeatherDisplay:10.36,2013-05-09 12:14:00,
2013-05-09 08:19:00,56.0,54.6,29.88,East,101,0.0,0.0,95,0.00,CLR,CLR,0.00,WeatherDisplay:10.36,2013-05-09 12:19:00,
2013-05-09 08:24:00,56.0,54.6,29.88,East,101,0.0,0.0,95,0.00,CLR,CLR,0.00,WeatherDisplay:10.36,2013-05-09 12:24:00,
2013-05-09 08:30:00,56.2,54.8,29.89,East,101,0.0,0.0,95,0.00,CLR,CLR,0.00,WeatherDisplay:10.36,2013-05-09 12:30:00,
2013-05-09 08:35:00,56.2,54.8,29.89,East,101,0.0,0.0,95,0.00,CLR,CLR,0.00,WeatherDisplay:10.36,2013-05-09 12:35:00,
2013-05-09 08:40:00,56.2,54.8,29.89,East,101,0.0,0.0,95,0.00,CLR,CLR,0.00,WeatherDisplay:10.36,2013-05-09 12:40:00,
2013-05-09 08:45:00,56.2,54.8,29.89,East,101,0.0,0.0,95,0.01,RA,RA,0.01,WeatherDisplay:10.36,2013-05-09 12:45:00,
2013-05-09 08:50:00,56.2,54.8,29.89,East,101,0.0,0.0,95,0.01,RA,RA,0.01,WeatherDisplay:10.36,2013-05-09 12:50:00,
2013-05-09 08:55:00,56.2,54.8,29.89,East,101,0.0,0.0,95,0.01,CLR,CLR,0.01,WeatherDisplay:10.36,2013-05-09 12:55:00,
2013-05-09 09:00:00,56.2,54.8,29.89,East,101,0.0,0.0,95,0.02,RA,RA,0.02,WeatherDisplay:10.36,2013-05-09 13:00:00,
2013-05-09 09:05:00,56.2,54.8,29.89,East,101,0.0,0.0,95,0.03,RA,RA,0.03,WeatherDisplay:10.36,2013-05-09 13:05:00,
2013-05-09 09:10:00,56.2,54.8,29.89,East,101,0.0,0.0,95,0.05,RA,RA,0.05,WeatherDisplay:10.36,2013-05-09 13:10:00,
2013-05-09 09:15:00,56.2,54.8,29.89,East,101,0.0,0.0,95,0.08,RA,RA,0.08,WeatherDisplay:10.36,2013-05-09 13:15:00,
2013-05-09 09:20:00,56.2,54.8,29.89,East,101,0.0,0.0,95,0.11,RA,RA,0.11,WeatherDisplay:10.36,2013-05-09 13:20:00,
2013-05-09 09:25:00,56.2,54.8,29.88,East,101,0.0,0.0,95,0.14,RA,RA,0.14,WeatherDisplay:10.36,2013-05-09 13:25:00,
2013-05-09 09:30:00,56.2,54.8,29.88,East,101,0.0,0.0,95,0.16,RA,RA,0.16,WeatherDisplay:10.36,2013-05-09 13:30:00,
2013-05-09 09:36:00,56.2,54.8,29.88,East,101,0.0,0.0,95,0.18,RA,RA,0.18,WeatherDisplay:10.36,2013-05-09 13:36:00,
2013-05-09 09:41:00,56.2,54.8,29.88,East,101,0.0,0.0,95,0.21,RA,RA,0.21,WeatherDisplay:10.36,2013-05-09 13:41:00,
2013-05-09 09:46:00,56.2,54.8,29.89,East,101,0.0,0.0,95,0.21,RA,RA,0.22,WeatherDisplay:10.36,2013-05-09 13:46:00,
2013-05-09 09:51:00,56.2,54.8,29.89,East,101,0.0,0.0,95,0.22,RA,RA,0.23,WeatherDisplay:10.36,2013-05-09 13:51:00,
2013-05-09 09:56:00,56.2,54.8,29.88,East,101,0.0,0.0,95,0.22,RA,RA,0.23,WeatherDisplay:10.36,2013-05-09 13:56:00,
2013-05-09 10:01:00,56.2,54.8,29.88,East,101,0.0,0.0,95,0.21,CLR,CLR,0.23,WeatherDisplay:10.36,2013-05-09 14:01:00,
2013-05-09 10:06:00,56.0,54.6,29.88,East,101,0.0,0.0,95,0.20,RA,RA,0.24,WeatherDisplay:10.36,2013-05-09 14:06:00,
2013-05-09 10:11:00,56.0,54.6,29.88,East,101,0.0,0.0,95,0.18,RA,RA,0.24,WeatherDisplay:10.36,2013-05-09 14:11:00,
2013-05-09 10:16:00,56.2,54.8,29.88,East,101,0.0,0.0,95,0.16,,,0.24,WeatherDisplay:10.36,2013-05-09 14:16:00,
2013-05-09 10:22:00,56.2,54.8,29.88,East,101,0.0,0.0,95,0.14,RA,RA,0.25,WeatherDisplay:10.36,2013-05-09 14:22:00,
2013-05-09 10:27:00,56.3,54.9,29.88,East,101,0.0,0.0,95,0.12,RA,RA,0.26,WeatherDisplay:10.36,2013-05-09 14:27:00,
2013-05-09 10:32:00,56.3,54.9,29.88,East,101,0.0,0.0,95,0.12,RA,RA,0.28,WeatherDisplay:10.36,2013-05-09 14:32:00,
2013-05-09 10:37:00,56.5,55.4,29.87,East,101,0.0,0.0,96,0.11,RA,RA,0.29,WeatherDisplay:10.36,2013-05-09 14:37:00,
2013-05-09 10:42:00,56.7,55.6,29.87,East,101,0.0,0.0,96,0.08,RA,RA,0.29,WeatherDisplay:10.36,2013-05-09 14:42:00,
2013-05-09 10:47:00,57.0,55.9,29.88,East,101,0.0,0.0,96,0.06,,,0.29,WeatherDisplay:10.36,2013-05-09 14:47:00,
2013-05-09 10:52:00,57.2,56.1,29.88,East,101,0.0,0.0,96,0.06,CLR,CLR,0.29,WeatherDisplay:10.36,2013-05-09 14:52:00,
2013-05-09 10:58:00,57.3,56.2,29.88,East,101,0.0,0.0,96,0.07,RA,RA,0.30,WeatherDisplay:10.36,2013-05-09 14:58:00,
2013-05-09 11:03:00,57.6,56.5,29.88,East,101,0.0,0.0,96,0.07,RA,RA,0.30,WeatherDisplay:10.36,2013-05-09 15:03:00,
2013-05-09 11:08:00,58.1,57.0,29.88,East,101,0.0,0.0,96,0.06,CLR,CLR,0.30,WeatherDisplay:10.36,2013-05-09 15:08:00,
2013-05-09 11:13:00,58.4,57.3,29.88,East,101,1.2,0.0,96,0.06,CLR,CLR,0.30,WeatherDisplay:10.36,2013-05-09 15:13:00,
2013-05-09 11:18:00,58.4,57.3,29.88,East,101,0.0,0.0,96,0.05,CLR,CLR,0.30,WeatherDisplay:10.36,2013-05-09 15:18:00,
2013-05-09 11:23:00,58.4,57.3,29.88,East,101,0.0,0.0,96,0.05,CLR,CLR,0.30,WeatherDisplay:10.36,2013-05-09 15:23:00,
2013-05-09 11:28:00,58.6,57.5,29.88,East,101,0.0,0.0,96,0.04,CLR,CLR,0.30,WeatherDisplay:10.36,2013-05-09 15:28:00,
2013-05-09 11:33:00,58.7,57.6,29.88,East,101,0.0,0.0,96,0.02,CLR,CLR,0.30,WeatherDisplay:10.36,2013-05-09 15:33:00,
2013-05-09 11:39:00,58.7,57.6,29.88,East,101,0.0,0.0,96,0.01,CLR,CLR,0.30,WeatherDisplay:10.36,2013-05-09 15:39:00,
2013-05-09 11:44:00,58.7,57.6,29.88,East,101,0.0,0.0,96,0.01,CLR,CLR,0.30,WeatherDisplay:10.36,2013-05-09 15:44:00,
2013-05-09 11:49:00,58.7,57.6,29.88,East,101,0.0,0.0,96,0.01,CLR,CLR,0.30,WeatherDisplay:10.36,2013-05-09 15:49:00,
2013-05-09 11:54:00,58.9,57.8,29.88,East,101,0.0,0.0,96,0.01,CLR,CLR,0.30,WeatherDisplay:10.36,2013-05-09 15:54:00,
2013-05-09 11:59:00,58.7,57.3,29.88,East,101,0.0,0.0,95,0.00,CLR,CLR,0.30,WeatherDisplay:10.36,2013-05-09 15:59:00,
2013-05-09 12:05:00,58.9,57.8,29.87,East,101,0.0,0.0,96,0.00,CLR,CLR,0.30,WeatherDisplay:10.36,2013-05-09 16:05:00,
2013-05-09 12:10:00,59.0,57.9,29.87,East,101,0.0,0.0,96,0.00,CLR,CLR,0.30,WeatherDisplay:10.36,2013-05-09 16:10:00,
2013-05-09 12:15:00,59.2,57.8,29.87,East,101,0.0,0.0,95,0.00,CLR,CLR,0.30,WeatherDisplay:10.36,2013-05-09 16:15:00,
2013-05-09 12:20:00,59.2,57.8,29.87,East,101,0.0,0.0,95,0.00,CLR,CLR,0.30,WeatherDisplay:10.36,2013-05-09 16:20:00,
2013-05-09 12:25:00,59.3,57.9,29.87,East,101,0.0,0.0,95,0.00,CLR,CLR,0.30,WeatherDisplay:10.36,2013-05-09 16:25:00,
2013-05-09 12:30:00,59.3,57.9,29.86,East,101,0.0,0.0,95,0.00,CLR,CLR,0.30,WeatherDisplay:10.36,2013-05-09 16:30:00,
2013-05-09 12:35:00,59.6,58.2,29.86,East,101,0.0,0.0,95,0.00,CLR,CLR,0.30,WeatherDisplay:10.36,2013-05-09 16:35:00,
2013-05-09 12:41:00,59.5,58.1,29.86,East,101,0.0,0.0,95,0.00,CLR,CLR,0.30,WeatherDisplay:10.36,2013-05-09 16:41:00,
2013-05-09 12:46:00,59.3,57.9,29.86,East,101,0.0,0.0,95,0.00,CLR,CLR,0.30,WeatherDisplay:10.36,2013-05-09 16:46:00,
2013-05-09 12:51:00,59.2,57.5,29.86,East,101,0.0,0.0,94,0.00,CLR,CLR,0.30,WeatherDisplay:10.36,2013-05-09 16:51:00,
2013-05-09 12:56:00,59.2,57.5,29.86,East,101,0.0,0.0,94,0.00,CLR,CLR,0.30,WeatherDisplay:10.36,2013-05-09 16:56:00,
2013-05-09 13:01:00,59.2,57.5,29.86,East,101,0.0,0.0,94,0.00,CLR,CLR,0.30,WeatherDisplay:10.36,2013-05-09 17:01:00,
2013-05-09 13:06:00,59.2,57.5,29.86,East,101,0.0,0.0,94,0.00,CLR,CLR,0.30,WeatherDisplay:10.36,2013-05-09 17:06:00,
2013-05-09 13:11:00,59.2,57.5,29.86,East,100,0.0,0.0,94,0.00,CLR,CLR,0.30,WeatherDisplay:10.36,2013-05-09 17:11:00,
2013-05-09 13:16:00,59.3,57.3,29.86,East,101,0.0,0.0,93,0.00,CLR,CLR,0.30,WeatherDisplay:10.36,2013-05-09 17:16:00,
2013-05-09 13:21:00,59.3,57.3,29.86,East,101,0.0,0.0,93,0.00,CLR,CLR,0.30,WeatherDisplay:10.36,2013-05-09 17:21:00,
2013-05-09 13:27:00,59.5,57.5,29.86,East,101,0.0,0.0,93,0.00,CLR,CLR,0.30,WeatherDisplay:10.36,2013-05-09 17:27:00,
2013-05-09 13:32:00,59.6,57.6,29.86,East,101,0.0,0.0,93,0.00,CLR,CLR,0.30,WeatherDisplay:10.36,2013-05-09 17:32:00,
2013-05-09 13:37:00,59.9,57.9,29.85,East,101,0.0,0.0,93,0.00,CLR,CLR,0.30,WeatherDisplay:10.36,2013-05-09 17:37:00,
2013-05-09 13:43:00,60.5,58.5,29.85,East,100,1.2,0.0,93,0.00,CLR,CLR,0.30,WeatherDisplay:10.36,2013-05-09 17:43:00,
2013-05-09 13:48:00,60.9,58.3,29.85,SSW,193,2.0,2.0,91,0.00,CLR,CLR,0.30,WeatherDisplay:10.36,2013-05-09 17:48:00,
2013-05-09 13:53:00,61.0,58.0,29.85,South,191,0.0,0.0,90,0.00,CLR,CLR,0.30,WeatherDisplay:10.36,2013-05-09 17:53:00,
2013-05-09 13:58:00,61.2,57.6,29.85,South,191,0.0,0.0,88,0.00,CLR,CLR,0.30,WeatherDisplay:10.36,2013-05-09 17:58:00,
2013-05-09 14:03:00,61.0,57.4,29.85,South,191,0.0,0.0,88,0.00,CLR,CLR,0.30,WeatherDisplay:10.36,2013-05-09 18:03:00,
2013-05-09 14:08:00,61.2,57.6,29.84,South,191,0.0,0.0,88,0.00,CLR,CLR,0.30,WeatherDisplay:10.36,2013-05-09 18:08:00,
2013-05-09 14:13:00,61.3,57.4,29.84,South,191,0.0,0.0,87,0.00,CLR,CLR,0.30,WeatherDisplay:10.36,2013-05-09 18:13:00,
2013-05-09 14:18:00,61.6,57.4,29.84,South,191,0.0,0.0,86,0.00,CLR,CLR,0.30,WeatherDisplay:10.36,2013-05-09 18:18:00,
2013-05-09 14:23:00,62.3,57.7,29.84,South,191,0.0,0.0,85,0.00,CLR,CLR,0.30,WeatherDisplay:10.36,2013-05-09 18:23:00,
2013-05-09 14:28:00,63.1,57.9,29.84,South,191,0.0,0.0,83,0.00,CLR,CLR,0.30,WeatherDisplay:10.36,2013-05-09 18:28:00,
2013-05-09 14:34:00,63.7,56.4,29.84,SW,229,0.0,0.0,77,0.00,CLR,CLR,0.30,WeatherDisplay:10.36,2013-05-09 18:34:00,
2013-05-09 14:39:00,64.5,56.4,29.84,West,259,0.0,0.0,75,0.00,CLR,CLR,0.30,WeatherDisplay:10.36,2013-05-09 18:39:00,
2013-05-09 14:44:00,65.2,56.7,29.84,West,259,0.0,0.0,74,0.00,CLR,CLR,0.30,WeatherDisplay:10.36,2013-05-09 18:44:00,
2013-05-09 14:49:00,65.6,57.1,29.84,West,259,0.0,0.0,74,0.00,CLR,CLR,0.30,WeatherDisplay:10.36,2013-05-09 18:49:00,
2013-05-09 14:54:00,66.0,57.5,29.83,West,259,0.0,0.0,74,0.00,CLR,CLR,0.30,WeatherDisplay:10.36,2013-05-09 18:54:00,
2013-05-09 14:59:00,65.8,55.3,29.83,WSW,247,0.0,0.0,69,0.00,CLR,CLR,0.30,WeatherDisplay:10.36,2013-05-09 18:59:00,
2013-05-09 15:04:00,65.6,55.9,29.83,WSW,247,0.0,0.0,71,0.00,CLR,CLR,0.30,WeatherDisplay:10.36,2013-05-09 19:04:00,
2013-05-09 15:10:00,65.2,54.4,29.83,WSW,247,0.0,0.0,68,0.00,CLR,CLR,0.30,WeatherDisplay:10.36,2013-05-09 19:10:00,
2013-05-09 15:15:00,65.0,55.0,29.83,WSW,247,0.0,0.0,70,0.00,CLR,CLR,0.30,WeatherDisplay:10.36,2013-05-09 19:15:00,
2013-05-09 15:20:00,65.0,55.0,29.83,WSW,247,0.0,0.0,70,0.00,CLR,CLR,0.30,WeatherDisplay:10.36,2013-05-09 19:20:00,
2013-05-09 15:25:00,65.2,54.4,29.83,WSW,247,0.0,0.0,68,0.00,CLR,CLR,0.30,WeatherDisplay:10.36,2013-05-09 19:25:00,
2013-05-09 15:30:00,65.8,54.5,29.83,WSW,242,1.2,1.2,67,0.00,CLR,CLR,0.30,WeatherDisplay:10.36,2013-05-09 19:30:00,
2013-05-09 15:35:00,66.4,54.7,29.83,WSW,242,0.0,0.0,66,0.00,CLR,CLR,0.30,WeatherDisplay:10.36,2013-05-09 19:35:00,
2013-05-09 15:40:00,66.8,55.9,29.83,WSW,242,0.0,0.0,68,0.00,CLR,CLR,0.30,WeatherDisplay:10.36,2013-05-09 19:40:00,
2013-05-09 15:45:00,66.6,54.5,29.82,WSW,242,0.0,0.0,65,0.00,CLR,CLR,0.30,WeatherDisplay:10.36,2013-05-09 19:45:00,
2013-05-09 15:50:00,66.6,54.5,29.82,WSW,242,0.0,0.0,65,0.00,CLR,CLR,0.30,WeatherDisplay:10.36,2013-05-09 19:50:00,
2013-05-09 15:55:00,66.4,54.7,29.82,WSW,242,0.0,0.0,66,0.00,CLR,CLR,0.30,WeatherDisplay:10.36,2013-05-09 19:55:00,
2013-05-09 16:01:00,66.1,54.8,29.82,WSW,242,0.0,0.0,67,0.00,CLR,CLR,0.30,WeatherDisplay:10.36,2013-05-09 20:01:00,
2013-05-09 16:06:00,66.0,54.3,29.82,WSW,242,0.0,0.0,66,0.00,CLR,CLR,0.30,WeatherDisplay:10.36,2013-05-09 20:06:00,
2013-05-09 16:11:00,66.9,54.3,29.82,SW,226,2.3,2.3,64,0.00,CLR,CLR,0.30,WeatherDisplay:10.36,2013-05-09 20:11:00,
2013-05-09 16:16:00,67.9,54.0,29.82,ESE,123,2.3,0.0,61,0.00,CLR,CLR,0.30,WeatherDisplay:10.36,2013-05-09 20:16:00,
2013-05-09 16:22:00,68.9,54.4,29.82,SE,130,3.5,0.0,60,0.00,CLR,CLR,0.30,WeatherDisplay:10.36,2013-05-09 20:22:00,
2013-05-09 16:27:00,68.9,54.4,29.82,SSW,197,0.0,0.0,60,0.00,CLR,CLR,0.30,WeatherDisplay:10.36,2013-05-09 20:27:00,
2013-05-09 16:32:00,68.3,53.9,29.82,SSW,197,1.2,0.0,60,0.00,CLR,CLR,0.30,WeatherDisplay:10.36,2013-05-09 20:32:00,
2013-05-09 16:37:00,67.8,54.3,29.82,South,181,1.0,0.0,62,0.00,CLR,CLR,0.30,WeatherDisplay:10.36,2013-05-09 20:37:00,
2013-05-09 16:42:00,67.6,55.0,29.82,South,181,0.0,0.0,64,0.00,CLR,CLR,0.30,WeatherDisplay:10.36,2013-05-09 20:42:00,
2013-05-09 16:47:00,67.3,54.7,29.82,South,169,0.0,0.0,64,0.00,CLR,CLR,0.30,WeatherDisplay:10.36,2013-05-09 20:47:00,
2013-05-09 16:52:00,66.9,54.7,29.82,South,169,0.0,0.0,65,0.00,CLR,CLR,0.30,WeatherDisplay:10.36,2013-05-09 20:52:00,
2013-05-09 16:57:00,66.6,54.5,29.82,South,169,0.0,0.0,65,0.00,CLR,CLR,0.30,WeatherDisplay:10.36,2013-05-09 20:57:00,
2013-05-09 17:02:00,66.6,54.9,29.82,South,169,0.0,0.0,66,0.00,CLR,CLR,0.30,WeatherDisplay:10.36,2013-05-09 21:02:00,
2013-05-09 17:07:00,66.4,55.1,29.82,South,169,0.0,0.0,67,0.00,CLR,CLR,0.30,WeatherDisplay:10.36,2013-05-09 21:07:00,
2013-05-09 17:13:00,66.4,55.5,29.82,South,169,0.0,0.0,68,0.00,CLR,CLR,0.30,WeatherDisplay:10.36,2013-05-09 21:13:00,
2013-05-09 17:18:00,66.4,55.5,29.83,South,169,0.0,0.0,68,0.00,CLR,CLR,0.30,WeatherDisplay:10.36,2013-05-09 21:18:00,
2013-05-09 17:23:00,66.4,55.1,29.83,SW,226,3.5,3.5,67,0.00,CLR,CLR,0.30,WeatherDisplay:10.36,2013-05-09 21:23:00,
2013-05-09 17:28:00,66.3,54.2,29.83,WSW,248,1.2,0.0,65,0.00,CLR,CLR,0.30,WeatherDisplay:10.36,2013-05-09 21:28:00,
2013-05-09 17:33:00,66.4,54.3,29.83,SSW,192,0.0,0.0,65,0.00,CLR,CLR,0.30,WeatherDisplay:10.36,2013-05-09 21:33:00,
2013-05-09 17:38:00,66.4,54.3,29.83,SSW,192,0.0,0.0,65,0.00,CLR,CLR,0.30,WeatherDisplay:10.36,2013-05-09 21:38:00,
2013-05-09 17:43:00,66.4,53.8,29.83,South,189,0.0,0.0,64,0.01,RA,RA,0.31,WeatherDisplay:10.36,2013-05-09 21:43:00,
2013-05-09 17:48:00,66.4,53.4,29.82,SW,231,1.2,0.0,63,0.01,RA,RA,0.31,WeatherDisplay:10.36,2013-05-09 21:48:00,
2013-05-09 17:53:00,66.4,53.4,29.82,South,190,4.6,0.0,63,0.01,,,0.31,WeatherDisplay:10.36,2013-05-09 21:53:00,
2013-05-09 17:58:00,66.4,53.8,29.82,South,190,2.3,0.0,64,0.01,CLR,CLR,0.31,WeatherDisplay:10.36,2013-05-09 21:58:00,
2013-05-09 18:03:00,66.4,53.0,29.82,SSW,193,2.3,0.0,62,0.01,CLR,CLR,0.31,WeatherDisplay:10.36,2013-05-09 22:03:00,
2013-05-09 18:09:00,66.3,53.8,29.82,SSW,209,0.0,0.0,64,0.01,CLR,CLR,0.31,WeatherDisplay:10.36,2013-05-09 22:09:00,
2013-05-09 18:14:00,66.6,53.2,29.82,SW,233,1.2,0.0,62,0.01,CLR,CLR,0.31,WeatherDisplay:10.36,2013-05-09 22:14:00,
2013-05-09 18:19:00,67.3,52.5,29.82,South,190,3.5,3.5,59,0.01,CLR,CLR,0.31,WeatherDisplay:10.36,2013-05-09 22:19:00,
2013-05-09 18:24:00,67.9,53.5,29.82,SSW,207,3.5,3.5,60,0.01,CLR,CLR,0.31,WeatherDisplay:10.36,2013-05-09 22:24:00,
2013-05-09 18:29:00,68.3,52.5,29.82,SW,218,2.3,2.3,57,0.01,CLR,CLR,0.31,WeatherDisplay:10.36,2013-05-09 22:29:00,
2013-05-09 18:34:00,68.3,52.5,29.83,SW,230,3.5,3.5,57,0.01,CLR,CLR,0.31,WeatherDisplay:10.36,2013-05-09 22:34:00,
2013-05-09 18:39:00,67.9,52.1,29.83,SW,228,2.3,2.3,57,0.01,CLR,CLR,0.31,WeatherDisplay:10.36,2013-05-09 22:39:00,
2013-05-09 18:44:00,67.6,52.8,29.83,SSW,200,0.0,0.0,59,0.00,CLR,CLR,0.31,WeatherDisplay:10.36,2013-05-09 22:44:00,
2013-05-09 18:49:00,67.3,52.9,29.83,SSW,200,0.0,0.0,60,0.00,CLR,CLR,0.31,WeatherDisplay:10.36,2013-05-09 22:49:00,
2013-05-09 18:55:00,67.1,51.8,29.83,SSW,196,0.0,0.0,58,0.00,CLR,CLR,0.31,WeatherDisplay:10.36,2013-05-09 22:55:00,
2013-05-09 19:00:00,66.9,52.1,29.83,SSW,207,0.0,0.1,59,0.00,CLR,CLR,0.31,WeatherDisplay:10.36,2013-05-09 23:00:00,
2013-05-09 19:05:00,66.9,52.1,29.83,SSW,207,0.0,0.0,59,0.00,CLR,CLR,0.31,WeatherDisplay:10.36,2013-05-09 23:05:00,
2013-05-09 19:10:00,66.8,52.0,29.83,SSW,212,0.0,0.0,59,0.00,CLR,CLR,0.31,WeatherDisplay:10.36,2013-05-09 23:10:00,
2013-05-09 19:15:00,66.6,51.8,29.83,SW,234,0.0,0.0,59,0.00,CLR,CLR,0.31,WeatherDisplay:10.36,2013-05-09 23:15:00,
2013-05-09 19:20:00,66.5,52.2,29.83,SW,219,0.0,3.0,60,0.00,CLR,CLR,0.31,WeatherDisplay:10.36,2013-05-09 23:20:00,
2013-05-09 19:25:00,66.3,51.5,29.84,SSW,209,0.0,1.0,59,0.00,CLR,CLR,0.31,WeatherDisplay:10.36,2013-05-09 23:25:00,
2013-05-09 19:30:00,66.1,52.3,29.84,SSW,209,0.0,0.0,61,0.00,CLR,CLR,0.31,WeatherDisplay:10.36,2013-05-09 23:30:00,
2013-05-09 19:35:00,65.8,52.4,29.84,SSW,209,0.0,0.0,62,0.00,CLR,CLR,0.31,WeatherDisplay:10.36,2013-05-09 23:35:00,
2013-05-09 19:40:00,65.5,53.0,29.84,SSW,209,0.0,0.0,64,0.00,CLR,CLR,0.31,WeatherDisplay:10.36,2013-05-09 23:40:00,
2013-05-09 19:45:00,65.3,53.2,29.84,SSW,209,0.0,0.0,65,0.00,CLR,CLR,0.31,WeatherDisplay:10.36,2013-05-09 23:45:00,
2013-05-09 19:50:00,65.0,52.9,29.84,SSW,209,0.0,0.0,65,0.00,CLR,CLR,0.31,WeatherDisplay:10.36,2013-05-09 23:50:00,
2013-05-09 19:55:00,64.7,53.1,29.85,SSW,209,0.0,0.0,66,0.00,CLR,CLR,0.31,WeatherDisplay:10.36,2013-05-09 23:55:00,
2013-05-09 20:01:00,64.5,52.9,29.85,SSW,209,0.0,0.0,66,0.00,CLR,CLR,0.31,WeatherDisplay:10.36,2013-05-10 00:01:00,
2013-05-09 20:06:00,64.2,53.0,29.85,SSW,209,0.0,0.0,67,0.00,CLR,CLR,0.31,WeatherDisplay:10.36,2013-05-10 00:06:00,
2013-05-09 20:11:00,63.9,53.1,29.85,SSW,209,0.0,0.0,68,0.00,CLR,CLR,0.31,WeatherDisplay:10.36,2013-05-10 00:11:00,
2013-05-09 20:16:00,63.5,53.1,29.85,SSW,209,0.0,0.0,69,0.00,CLR,CLR,0.31,WeatherDisplay:10.36,2013-05-10 00:16:00,
2013-05-09 20:21:00,63.4,53.0,29.86,SSW,209,0.0,0.0,69,0.00,CLR,CLR,0.31,WeatherDisplay:10.36,2013-05-10 00:21:00,
2013-05-09 20:27:00,63.2,53.3,29.86,SSW,209,0.0,0.0,70,0.00,CLR,CLR,0.31,WeatherDisplay:10.36,2013-05-10 00:27:00,
2013-05-09 20:32:00,63.1,53.2,29.86,SSW,209,0.0,0.0,70,0.00,CLR,CLR,0.31,WeatherDisplay:10.36,2013-05-10 00:32:00,
2013-05-09 20:37:00,62.6,53.4,29.86,SSW,209,0.0,0.0,72,0.00,CLR,CLR,0.31,WeatherDisplay:10.36,2013-05-10 00:37:00,
2013-05-09 20:42:00,62.4,53.6,29.86,SSW,209,0.0,0.0,73,0.00,CLR,CLR,0.31,WeatherDisplay:10.36,2013-05-10 00:42:00,
2013-05-09 20:48:00,62.3,53.9,29.86,SSW,209,0.0,0.0,74,0.00,CLR,CLR,0.31,WeatherDisplay:10.36,2013-05-10 00:48:00,
2013-05-09 20:53:00,62.1,53.7,29.86,SSW,209,0.0,0.0,74,0.00,CLR,CLR,0.31,WeatherDisplay:10.36,2013-05-10 00:53:00,
2013-05-09 20:58:00,62.0,54.0,29.86,SSW,209,0.0,0.0,75,0.00,CLR,CLR,0.31,WeatherDisplay:10.36,2013-05-10 00:58:00,
2013-05-09 21:03:00,62.0,54.3,29.87,SSW,209,0.0,0.0,76,0.00,CLR,CLR,0.31,WeatherDisplay:10.36,2013-05-10 01:03:00,
2013-05-09 21:08:00,61.8,54.5,29.87,SSW,209,0.0,0.0,77,0.00,CLR,CLR,0.31,WeatherDisplay:10.36,2013-05-10 01:08:00,
2013-05-09 21:13:00,61.6,54.3,29.87,SSW,209,0.0,0.0,77,0.00,CLR,CLR,0.31,WeatherDisplay:10.36,2013-05-10 01:13:00,
2013-05-09 21:18:00,61.6,54.7,29.87,SSW,209,0.0,0.0,78,0.00,CLR,CLR,0.31,WeatherDisplay:10.36,2013-05-10 01:18:00,
2013-05-09 21:23:00,61.6,54.7,29.87,SSW,209,0.0,0.0,78,0.00,CLR,CLR,0.31,WeatherDisplay:10.36,2013-05-10 01:23:00,
2013-05-09 21:28:00,61.5,54.9,29.87,SSW,209,0.0,0.0,79,0.00,CLR,CLR,0.31,WeatherDisplay:10.36,2013-05-10 01:28:00,
2013-05-09 21:33:00,61.2,54.6,29.87,SSW,209,0.0,0.0,79,0.00,CLR,CLR,0.31,WeatherDisplay:10.36,2013-05-10 01:33:00,
2013-05-09 21:38:00,61.0,54.4,29.87,SSW,209,0.0,0.0,79,0.00,CLR,CLR,0.31,WeatherDisplay:10.36,2013-05-10 01:38:00,
2013-05-09 21:44:00,60.9,54.7,29.87,SSW,209,0.0,0.0,80,0.00,CLR,CLR,0.31,WeatherDisplay:10.36,2013-05-10 01:44:00,
2013-05-09 21:49:00,60.5,54.3,29.88,SSW,209,0.0,0.0,80,0.00,CLR,CLR,0.31,WeatherDisplay:10.36,2013-05-10 01:49:00,
2013-05-09 21:54:00,60.4,54.5,29.88,SSW,209,0.0,0.0,81,0.00,CLR,CLR,0.31,WeatherDisplay:10.36,2013-05-10 01:54:00,
2013-05-09 21:59:00,60.1,54.6,29.87,SSW,209,0.0,0.0,82,0.00,CLR,CLR,0.31,WeatherDisplay:10.36,2013-05-10 01:59:00,
2013-05-09 22:04:00,59.9,54.4,29.87,SSW,209,0.0,0.0,82,0.00,CLR,CLR,0.31,WeatherDisplay:10.36,2013-05-10 02:04:00,
2013-05-09 22:09:00,59.8,54.6,29.87,SSW,209,0.0,0.0,83,0.00,CLR,CLR,0.31,WeatherDisplay:10.36,2013-05-10 02:09:00,
2013-05-09 22:14:00,59.6,54.8,29.87,SSW,209,0.0,0.0,84,0.00,CLR,CLR,0.31,WeatherDisplay:10.36,2013-05-10 02:14:00,
2013-05-09 22:19:00,59.5,54.7,29.87,SSW,209,0.0,0.0,84,0.00,CLR,CLR,0.31,WeatherDisplay:10.36,2013-05-10 02:19:00,
2013-05-09 22:25:00,59.3,54.8,29.87,SSW,209,0.0,0.0,85,0.00,CLR,CLR,0.31,WeatherDisplay:10.36,2013-05-10 02:25:00,
2013-05-09 22:30:00,59.3,54.8,29.87,SSW,209,0.0,0.0,85,0.00,CLR,CLR,0.31,WeatherDisplay:10.36,2013-05-10 02:30:00,
2013-05-09 22:35:00,59.2,54.7,29.87,SSW,209,0.0,0.0,85,0.00,CLR,CLR,0.31,WeatherDisplay:10.36,2013-05-10 02:35:00,
2013-05-09 22:40:00,59.0,54.8,29.87,SSW,209,0.0,0.0,86,0.00,CLR,CLR,0.31,WeatherDisplay:10.36,2013-05-10 02:40:00,
2013-05-09 22:45:00,58.9,55.0,29.87,SSW,209,0.0,0.0,87,0.00,CLR,CLR,0.31,WeatherDisplay:10.36,2013-05-10 02:45:00,
2013-05-09 22:50:00,58.6,54.7,29.87,SSW,209,0.0,0.0,87,0.00,CLR,CLR,0.31,WeatherDisplay:10.36,2013-05-10 02:50:00,
2013-05-09 22:55:00,58.3,54.4,29.87,SSW,209,0.0,0.0,87,0.00,CLR,CLR,0.31,WeatherDisplay:10.36,2013-05-10 02:55:00,
2013-05-09 23:00:00,58.1,54.6,29.87,SSW,209,0.0,0.0,88,0.00,CLR,CLR,0.31,WeatherDisplay:10.36,2013-05-10 03:00:00,
2013-05-09 23:05:00,58.1,54.6,29.88,SSW,209,0.0,0.0,88,0.00,CLR,CLR,0.31,WeatherDisplay:10.36,2013-05-10 03:05:00,
2013-05-09 23:10:00,58.0,54.8,29.88,SSW,209,0.0,0.0,89,0.00,CLR,CLR,0.31,WeatherDisplay:10.36,2013-05-10 03:10:00,
2013-05-09 23:16:00,58.0,54.8,29.88,SSW,209,0.0,0.0,89,0.00,CLR,CLR,0.31,WeatherDisplay:10.36,2013-05-10 03:16:00,
2013-05-09 23:21:00,57.8,54.6,29.88,SSW,209,0.0,0.0,89,0.00,CLR,CLR,0.31,WeatherDisplay:10.36,2013-05-10 03:21:00,
2013-05-09 23:26:00,57.8,54.6,29.88,SSW,209,0.0,0.0,89,0.00,CLR,CLR,0.31,WeatherDisplay:10.36,2013-05-10 03:26:00,
2013-05-09 23:31:00,57.6,54.7,29.88,SSW,209,0.0,0.0,90,0.00,CLR,CLR,0.31,WeatherDisplay:10.36,2013-05-10 03:31:00,
2013-05-09 23:36:00,57.6,54.7,29.88,SSW,209,0.0,0.0,90,0.00,CLR,CLR,0.31,WeatherDisplay:10.36,2013-05-10 03:36:00,
2013-05-09 23:41:00,57.5,54.6,29.88,SSW,209,0.0,0.0,90,0.00,CLR,CLR,0.31,WeatherDisplay:10.36,2013-05-10 03:41:00,
2013-05-09 23:46:00,57.5,54.6,29.88,SSW,209,0.0,0.0,90,0.00,CLR,CLR,0.31,WeatherDisplay:10.36,2013-05-10 03:46:00,
2013-05-09 23:51:00,57.3,54.4,29.88,SSW,209,0.0,0.0,90,0.00,CLR,CLR,0.31,WeatherDisplay:10.36,2013-05-10 03:51:00,
2013-05-09 23:57:00,57.3,54.4,29.88,SSW,209,0.0,0.0,90,0.00,CLR,CLR,0.31,WeatherDisplay:10.36,2013-05-10 03:57:00,